| time (UTC) | temp C | wind direction | speed KPH | gust KPH | rain 1hr cm | rain 24hr cm | rain mn cm | humidity % | barometer mb |
| 20260510225002 | 25 | 156 | 14.5 | 22.5 | 0.00 | 0.00 | 0.00 | 55 | 990.3 |
| 20260510224502 | 25 | 151 | 14.5 | 20.9 | 0.00 | 0.00 | 0.00 | 55 | 990.3 |
| 20260510224002 | 25 | 154 | 16.1 | 20.9 | 0.00 | 0.00 | 0.00 | 52 | 990.3 |
| 20260510223502 | 26 | 147 | 17.7 | 27.4 | 0.00 | 0.00 | 0.00 | 51 | 990.3 |
| 20260510223002 | 26 | 148 | 24.1 | 35.4 | 0.00 | 0.00 | 0.00 | 49 | 990.3 |
| 20260510222502 | 27 | 148 | 24.1 | 37.0 | 0.00 | 0.00 | 0.00 | 48 | 990.3 |
| 20260510222003 | 27 | 141 | 19.3 | 27.4 | 0.00 | 0.00 | 0.00 | 45 | 990.3 |
| 20260510221502 | 28 | 141 | 17.7 | 27.4 | 0.00 | 0.00 | 0.00 | 42 | 990.4 |
| 20260510221002 | 28 | 141 | 17.7 | 27.4 | 0.00 | 0.00 | 0.00 | 41 | 990.5 |
| 20260510220502 | 28 | 142 | 14.5 | 27.4 | 0.00 | 0.00 | 0.00 | 40 | 990.5 |
| 20260510220002 | 28 | 142 | 16.1 | 27.4 | 0.00 | 0.00 | 0.00 | 41 | 990.5 |
| 20260510215502 | 28 | 105 | 12.9 | 24.1 | 0.00 | 0.00 | 0.00 | 41 | 990.5 |
| 20260510215003 | 28 | 237 | 14.5 | 32.2 | 0.00 | 0.00 | 0.00 | 40 | 990.4 |
| 20260510214502 | 28 | 154 | 19.3 | 32.2 | 0.00 | 0.00 | 0.00 | 41 | 990.4 |
| 20260510214002 | 28 | 142 | 22.5 | 29.0 | 0.00 | 0.00 | 0.00 | 40 | 990.4 |
| 20260510213502 | 28 | 180 | 12.9 | 41.8 | 0.00 | 0.00 | 0.00 | 39 | 990.5 |
| 20260510213003 | 28 | 119 | 16.1 | 30.6 | 0.00 | 0.00 | 0.00 | 38 | 990.5 |
| 20260510212502 | 28 | 158 | 11.3 | 35.4 | 0.00 | 0.00 | 0.00 | 40 | 990.6 |
| 20260510212002 | 28 | 331 | 8.0 | 16.1 | 0.00 | 0.00 | 0.00 | 39 | 990.7 |
| 20260510211502 | 28 | 311 | 11.3 | 32.2 | 0.00 | 0.00 | 0.00 | 40 | 990.7 |
| 20260510211002 | 28 | 146 | 19.3 | 35.4 | 0.00 | 0.00 | 0.00 | 39 | 990.8 |
| 20260510210502 | 28 | 161 | 20.9 | 38.6 | 0.00 | 0.00 | 0.00 | 39 | 990.8 |
| 20260510210002 | 28 | 139 | 14.5 | 33.8 | 0.00 | 0.00 | 0.00 | 39 | 990.8 |
| 20260510205503 | 28 | 276 | 11.3 | 30.6 | 0.00 | 0.00 | 0.00 | 40 | 990.8 |
| 20260510205002 | 28 | 137 | 16.1 | 35.4 | 0.00 | 0.00 | 0.00 | 39 | 990.9 |
| 20260510204502 | 28 | 141 | 17.7 | 35.4 | 0.00 | 0.00 | 0.00 | 40 | 990.9 |
| 20260510204002 | 28 | 153 | 22.5 | 33.8 | 0.00 | 0.00 | 0.00 | 41 | 990.9 |
| 20260510203503 | 28 | 155 | 11.3 | 29.0 | 0.00 | 0.00 | 0.00 | 41 | 990.9 |
| 20260510203002 | 28 | 284 | 11.3 | 30.6 | 0.00 | 0.00 | 0.00 | 39 | 990.9 |
| 20260510202502 | 28 | 295 | 11.3 | 29.0 | 0.00 | 0.00 | 0.00 | 40 | 990.9 |
| 20260510202002 | 27 | 176 | 19.3 | 30.6 | 0.00 | 0.00 | 0.00 | 40 | 991.0 |
| 20260510201502 | 27 | 300 | 14.5 | 35.4 | 0.00 | 0.00 | 0.00 | 41 | 991.0 |
| 20260510201003 | 27 | 225 | 16.1 | 43.5 | 0.00 | 0.00 | 0.00 | 40 | 991.1 |
| 20260510200502 | 27 | 299 | 9.7 | 27.4 | 0.00 | 0.00 | 0.00 | 44 | 991.0 |
| 20260510200002 | 27 | 313 | 11.3 | 41.8 | 0.00 | 0.00 | 0.00 | 41 | 991.0 |
| 20260510195502 | 27 | 151 | 22.5 | 51.5 | 0.00 | 0.00 | 0.00 | 40 | 991.0 |
| 20260510195002 | 27 | 160 | 19.3 | 45.1 | 0.00 | 0.00 | 0.00 | 38 | 991.1 |
| 20260510194502 | 27 | 136 | 11.3 | 20.9 | 0.00 | 0.00 | 0.00 | 40 | 991.1 |
| 20260510194002 | 27 | 134 | 9.7 | 17.7 | 0.00 | 0.00 | 0.00 | 39 | 991.0 |
| 20260510193502 | 27 | 135 | 11.3 | 24.1 | 0.00 | 0.00 | 0.00 | 40 | 991.0 |
| 20260510193003 | 27 | 140 | 14.5 | 32.2 | 0.00 | 0.00 | 0.00 | 40 | 991.1 |
| 20260510192502 | 28 | 152 | 19.3 | 41.8 | 0.00 | 0.00 | 0.00 | 37 | 991.1 |
| 20260510192002 | 27 | 299 | 16.1 | 45.1 | 0.00 | 0.00 | 0.00 | 39 | 991.1 |
| 20260510191502 | 28 | 167 | 20.9 | 43.5 | 0.00 | 0.00 | 0.00 | 39 | 991.0 |
| 20260510191003 | 27 | 318 | 9.7 | 20.9 | 0.00 | 0.00 | 0.00 | 38 | 991.1 |
| 20260510190502 | 27 | 318 | 11.3 | 25.7 | 0.00 | 0.00 | 0.00 | 39 | 991.1 |
| 20260510190002 | 27 | 159 | 17.7 | 40.2 | 0.00 | 0.00 | 0.00 | 39 | 991.1 |
| 20260510185502 | 27 | 169 | 25.7 | 45.1 | 0.00 | 0.00 | 0.00 | 38 | 991.1 |
| 20260510185002 | 27 | 319 | 11.3 | 35.4 | 0.00 | 0.00 | 0.00 | 40 | 991.1 |
| 20260510184503 | 27 | 329 | 12.9 | 25.7 | 0.00 | 0.00 | 0.00 | 40 | 991.2 |
| 20260510184002 | 27 | 140 | 19.3 | 46.7 | 0.00 | 0.00 | 0.00 | 40 | 991.2 |
| 20260510183502 | 27 | 170 | 16.1 | 37.0 | 0.00 | 0.00 | 0.00 | 41 | 991.3 |
| 20260510183002 | 27 | 149 | 16.1 | 49.9 | 0.00 | 0.00 | 0.00 | 41 | 991.4 |
| 20260510182503 | 27 | 316 | 6.4 | 12.9 | 0.00 | 0.00 | 0.00 | 41 | 991.4 |
| 20260510182003 | 27 | 151 | 14.5 | 35.4 | 0.00 | 0.00 | 0.00 | 42 | 991.5 |
| 20260510181502 | 27 | 161 | 14.5 | 35.4 | 0.00 | 0.00 | 0.00 | 43 | 991.5 |
| 20260510181002 | 27 | 161 | 20.9 | 33.8 | 0.00 | 0.00 | 0.00 | 43 | 991.5 |
| 20260510180502 | 27 | 152 | 16.1 | 32.2 | 0.00 | 0.00 | 0.00 | 43 | 991.6 |
| 20260510180003 | 27 | 328 | 14.5 | 35.4 | 0.00 | 0.00 | 0.00 | 43 | 991.6 |
| 20260510175503 | 27 | 138 | 12.9 | 27.4 | 0.00 | 0.00 | 0.00 | 41 | 991.6 |
| 20260510175002 | 27 | 138 | 14.5 | 33.8 | 0.00 | 0.00 | 0.00 | 42 | 991.6 |
| 20260510174502 | 27 | 133 | 14.5 | 32.2 | 0.00 | 0.00 | 0.00 | 43 | 991.7 |
| 20260510174002 | 26 | 133 | 17.7 | 30.6 | 0.00 | 0.00 | 0.00 | 44 | 991.7 |
| 20260510173502 | 26 | 139 | 20.9 | 32.2 | 0.00 | 0.00 | 0.00 | 43 | 991.8 |
| 20260510173003 | 26 | 141 | 22.5 | 35.4 | 0.00 | 0.00 | 0.00 | 44 | 991.9 |
| 20260510172502 | 26 | 150 | 25.7 | 40.2 | 0.00 | 0.00 | 0.00 | 46 | 991.9 |
| 20260510172004 | 26 | 170 | 19.3 | 45.1 | 0.00 | 0.00 | 0.00 | 47 | 991.9 |
| 20260510171502 | 26 | 207 | 19.3 | 51.5 | 0.00 | 0.00 | 0.00 | 46 | 992.0 |
| 20260510171002 | 26 | 206 | 20.9 | 88.5 | 0.00 | 0.00 | 0.00 | 45 | 992.1 |
| 20260510170502 | 26 | 162 | 29.0 | 49.9 | 0.00 | 0.00 | 0.00 | 46 | 992.1 |
| 20260510170002 | 26 | 158 | 29.0 | 48.3 | 0.00 | 0.00 | 0.00 | 47 | 992.0 |
| 20260510165503 | 26 | 165 | 27.4 | 62.8 | 0.00 | 0.00 | 0.00 | 48 | 991.9 |
| 20260510165003 | 26 | 158 | 27.4 | 54.7 | 0.00 | 0.00 | 0.00 | 47 | 991.9 |
| 20260510164502 | 26 | 154 | 25.7 | 43.5 | 0.00 | 0.00 | 0.00 | 49 | 991.9 |
| 20260510164003 | 26 | 163 | 25.7 | 46.7 | 0.00 | 0.00 | 0.00 | 49 | 991.9 |
| 20260510163502 | 26 | 323 | 17.7 | 35.4 | 0.00 | 0.00 | 0.00 | 49 | 991.9 |
| 20260510163002 | 25 | 328 | 12.9 | 32.2 | 0.00 | 0.00 | 0.00 | 51 | 991.9 |
| 20260510162503 | 25 | 163 | 16.1 | 32.2 | 0.00 | 0.00 | 0.00 | 51 | 991.8 |
| 20260510162002 | 25 | 176 | 24.1 | 35.4 | 0.00 | 0.00 | 0.00 | 52 | 991.8 |
| 20260510161503 | 25 | 169 | 17.7 | 30.6 | 0.00 | 0.00 | 0.00 | 51 | 991.9 |
| 20260510161003 | 25 | 184 | 16.1 | 30.6 | 0.00 | 0.00 | 0.00 | 55 | 991.9 |
| 20260510160502 | 25 | 159 | 20.9 | 30.6 | 0.00 | 0.00 | 0.00 | 54 | 991.9 |
| 20260510160002 | 25 | 159 | 19.3 | 33.8 | 0.00 | 0.00 | 0.00 | 55 | 991.8 |
| 20260510155502 | 25 | 292 | 9.7 | 27.4 | 0.00 | 0.00 | 0.00 | 55 | 991.8 |
| 20260510155002 | 25 | 196 | 14.5 | 25.7 | 0.00 | 0.00 | 0.00 | 55 | 991.8 |
| 20260510154502 | 24 | 182 | 14.5 | 33.8 | 0.00 | 0.00 | 0.00 | 56 | 991.8 |
| 20260510154002 | 24 | 166 | 19.3 | 30.6 | 0.00 | 0.00 | 0.00 | 58 | 991.7 |
| 20260510153503 | 24 | 164 | 16.1 | 37.0 | 0.00 | 0.00 | 0.00 | 58 | 991.6 |
| 20260510153003 | 24 | 203 | 12.9 | 27.4 | 0.00 | 0.00 | 0.00 | 58 | 991.5 |
| 20260510152502 | 24 | 241 | 9.7 | 29.0 | 0.00 | 0.00 | 0.00 | 59 | 991.5 |
| 20260510152002 | 24 | 174 | 16.1 | 30.6 | 0.00 | 0.00 | 0.00 | 61 | 991.5 |
| 20260510151502 | 23 | 148 | 16.1 | 29.0 | 0.00 | 0.00 | 0.00 | 61 | 991.5 |
| 20260510151002 | 23 | 311 | 8.0 | 19.3 | 0.00 | 0.00 | 0.00 | 61 | 991.5 |
| 20260510150502 | 23 | 174 | 16.1 | 29.0 | 0.00 | 0.00 | 0.00 | 62 | 991.6 |
| 20260510150003 | 23 | 159 | 19.3 | 32.2 | 0.00 | 0.00 | 0.00 | 63 | 991.6 |
| 20260510145502 | 23 | 159 | 19.3 | 30.6 | 0.00 | 0.00 | 0.00 | 64 | 991.6 |
| 20260510145002 | 23 | 147 | 12.9 | 30.6 | 0.00 | 0.00 | 0.00 | 68 | 991.8 |
| 20260510144502 | 23 | 252 | 11.3 | 32.2 | 0.00 | 0.00 | 0.00 | 70 | 991.8 |
| 20260510144002 | 23 | 220 | 14.5 | 27.4 | 0.00 | 0.00 | 0.00 | 68 | 991.8 |
| 20260510143503 | 22 | 301 | 12.9 | 19.3 | 0.00 | 0.00 | 0.00 | 72 | 991.8 |
| 20260510143002 | 22 | 204 | 12.9 | 20.9 | 0.00 | 0.00 | 0.00 | 74 | 991.6 |
| 20260510142502 | 22 | 165 | 12.9 | 20.9 | 0.00 | 0.00 | 0.00 | 74 | 991.6 |
| 20260510142002 | 22 | 270 | 9.7 | 19.3 | 0.00 | 0.00 | 0.00 | 75 | 991.6 |
| 20260510141502 | 21 | 202 | 9.7 | 24.1 | 0.00 | 0.00 | 0.00 | 76 | 991.5 |
| 20260510141003 | 21 | 279 | 8.0 | 16.1 | 0.00 | 0.00 | 0.00 | 77 | 991.4 |
| 20260510140502 | 21 | 315 | 6.4 | 14.5 | 0.00 | 0.00 | 0.00 | 77 | 991.4 |
| 20260510140003 | 21 | 258 | 8.0 | 16.1 | 0.00 | 0.00 | 0.00 | 77 | 991.5 |
| 20260510135003 | 20 | 282 | 8.0 | 20.9 | 0.00 | 0.00 | 0.00 | 80 | 991.7 |
| 20260510134503 | 20 | 148 | 11.3 | 22.5 | 0.00 | 0.00 | 0.00 | 81 | 991.7 |
| 20260510134002 | 20 | 324 | 8.0 | 19.3 | 0.00 | 0.00 | 0.00 | 82 | 991.7 |
| 20260510133502 | 19 | 310 | 8.0 | 16.1 | 0.00 | 0.00 | 0.00 | 84 | 991.8 |
| 20260510133002 | 18 | 284 | 8.0 | 16.1 | 0.00 | 0.00 | 0.00 | 85 | 991.8 |
| 20260510132503 | 18 | 225 | 8.0 | 22.5 | 0.00 | 0.00 | 0.00 | 86 | 991.7 |
| 20260510132003 | 18 | 264 | 4.8 | 12.9 | 0.00 | 0.00 | 0.00 | 87 | 991.7 |
| 20260510131502 | 17 | 273 | 4.8 | 11.3 | 0.00 | 0.00 | 0.00 | 89 | 991.7 |
| 20260510131002 | 17 | 301 | 4.8 | 8.0 | 0.00 | 0.00 | 0.00 | 92 | 991.6 |
| 20260510130502 | 16 | 272 | 8.0 | 16.1 | 0.00 | 0.00 | 0.00 | 93 | 991.5 |
| 20260510130002 | 16 | 299 | 6.4 | 14.5 | 0.00 | 0.00 | 0.00 | 94 | 991.5 |
| 20260510125502 | 16 | 210 | 6.4 | 17.7 | 0.00 | 0.00 | 0.00 | 95 | 991.4 |
| 20260510125002 | 15 | 274 | 4.8 | 11.3 | 0.00 | 0.00 | 0.00 | 96 | 991.3 |
| 20260510124502 | 15 | 250 | 4.8 | 12.9 | 0.00 | 0.00 | 0.00 | 96 | 991.2 |
| 20260510124003 | 15 | 339 | 6.4 | 12.9 | 0.00 | 0.00 | 0.00 | 96 | 991.2 |
| 20260510123502 | 15 | 305 | 4.8 | 11.3 | 0.00 | 0.00 | 0.00 | 96 | 991.2 |
| 20260510123002 | 15 | 236 | 3.2 | 9.7 | 0.00 | 0.00 | 0.00 | 96 | 991.2 |
| 20260510122502 | 15 | 227 | 4.8 | 9.7 | 0.00 | 0.00 | 0.00 | 96 | 991.2 |
| 20260510122002 | 15 | 285 | 6.4 | 16.1 | 0.00 | 0.00 | 0.00 | 97 | 991.2 |
| 20260510121502 | 14 | 227 | 4.8 | 9.7 | 0.00 | 0.00 | 0.00 | 97 | 991.1 |
| 20260510121002 | 14 | 170 | 3.2 | 11.3 | 0.00 | 0.00 | 0.00 | 97 | 991.0 |
| 20260510120502 | 13 | 199 | 4.8 | 8.0 | 0.00 | 0.00 | 0.00 | 97 | 990.8 |
| 20260510120002 | 13 | 285 | 3.2 | 8.0 | 0.00 | 0.00 | 0.00 | 97 | 990.7 |
| 20260510115502 | 13 | 197 | 4.8 | 9.7 | 0.00 | 0.00 | 0.00 | 97 | 990.5 |
| 20260510115002 | 13 | 193 | 4.8 | 11.3 | 0.00 | 0.00 | 0.00 | 97 | 990.4 |
| 20260510114502 | 13 | 216 | 4.8 | 8.0 | 0.00 | 0.00 | 0.00 | 97 | 990.4 |
| 20260510114002 | 13 | 254 | 3.2 | 8.0 | 0.00 | 0.00 | 0.00 | 97 | 990.3 |
| 20260510113503 | 12 | 243 | 3.2 | 6.4 | 0.00 | 0.00 | 0.00 | 97 | 990.1 |
| 20260510113002 | 12 | 176 | 3.2 | 9.7 | 0.00 | 0.00 | 0.00 | 97 | 990.1 |
| 20260510112502 | 12 | 180 | 4.8 | 9.7 | 0.00 | 0.00 | 0.00 | 97 | 990.0 |
| 20260510112003 | 12 | 181 | 4.8 | 8.0 | 0.00 | 0.00 | 0.00 | 96 | 989.8 |
| 20260510111502 | 12 | 178 | 4.8 | 8.0 | 0.00 | 0.00 | 0.00 | 96 | 989.7 |
| 20260510111002 | 12 | 178 | 4.8 | 9.7 | 0.00 | 0.00 | 0.00 | 96 | 989.6 |
| 20260510110503 | 12 | 170 | 4.8 | 8.0 | 0.00 | 0.00 | 0.00 | 96 | 989.6 |
| 20260510110002 | 12 | 178 | 4.8 | 8.0 | 0.00 | 0.00 | 0.00 | 96 | 989.5 |
| 20260510105502 | 12 | 183 | 3.2 | 8.0 | 0.00 | 0.00 | 0.00 | 96 | 989.4 |
| 20260510105002 | 12 | 176 | 3.2 | 6.4 | 0.00 | 0.00 | 0.00 | 96 | 989.4 |
| 20260510104502 | 12 | 189 | 4.8 | 8.0 | 0.00 | 0.00 | 0.00 | 96 | 989.3 |
| 20260510104003 | 12 | 183 | 3.2 | 8.0 | 0.00 | 0.00 | 0.00 | 96 | 989.3 |
| 20260510103502 | 12 | 211 | 3.2 | 8.0 | 0.00 | 0.00 | 0.00 | 96 | 989.2 |
| 20260510103002 | 12 | 199 | 4.8 | 9.7 | 0.00 | 0.00 | 0.00 | 96 | 989.2 |
| 20260510102502 | 12 | 178 | 4.8 | 8.0 | 0.00 | 0.00 | 0.00 | 96 | 989.2 |
| 20260510102002 | 12 | 223 | 3.2 | 6.4 | 0.00 | 0.00 | 0.00 | 96 | 989.1 |
| 20260510101502 | 12 | 175 | 3.2 | 6.4 | 0.00 | 0.00 | 0.00 | 96 | 989.1 |
| 20260510101003 | 12 | 215 | 3.2 | 8.0 | 0.00 | 0.00 | 0.00 | 96 | 989.1 |
| 20260510100502 | 12 | 254 | 3.2 | 6.4 | 0.00 | 0.00 | 0.00 | 96 | 989.1 |
| 20260510100003 | 12 | 289 | 3.2 | 4.8 | 0.00 | 0.00 | 0.00 | 96 | 989.1 |
| 20260510095502 | 12 | 175 | 3.2 | 8.0 | 0.00 | 0.00 | 0.00 | 96 | 989.2 |
| 20260510095002 | 12 | 175 | 4.8 | 8.0 | 0.00 | 0.00 | 0.00 | 96 | 989.2 |
| 20260510094503 | 12 | 181 | 4.8 | 11.3 | 0.00 | 0.00 | 0.00 | 96 | 989.1 |
| 20260510094002 | 12 | 174 | 3.2 | 6.4 | 0.00 | 0.00 | 0.00 | 96 | 989.0 |
| 20260510093502 | 12 | 209 | 3.2 | 6.4 | 0.00 | 0.00 | 0.00 | 96 | 989.0 |
| 20260510093002 | 12 | 163 | 3.2 | 8.0 | 0.00 | 0.00 | 0.00 | 96 | 989.0 |
| 20260510092502 | 12 | 170 | 4.8 | 8.0 | 0.00 | 0.00 | 0.00 | 96 | 988.9 |
| 20260510092002 | 12 | 194 | 3.2 | 6.4 | 0.00 | 0.00 | 0.00 | 96 | 988.9 |
| 20260510091502 | 12 | 172 | 4.8 | 8.0 | 0.00 | 0.00 | 0.00 | 96 | 988.9 |
| 20260510091003 | 12 | 187 | 3.2 | 6.4 | 0.00 | 0.00 | 0.00 | 96 | 988.8 |
| 20260510090502 | 12 | 173 | 3.2 | 6.4 | 0.00 | 0.00 | 0.00 | 96 | 988.8 |
| 20260510090002 | 12 | 190 | 3.2 | 6.4 | 0.00 | 0.00 | 0.00 | 96 | 988.9 |
| 20260510085502 | 12 | 223 | 3.2 | 6.4 | 0.00 | 0.00 | 0.00 | 96 | 988.8 |
| 20260510085002 | 12 | 172 | 4.8 | 8.0 | 0.00 | 0.00 | 0.00 | 96 | 988.8 |
| 20260510084502 | 11 | 201 | 3.2 | 6.4 | 0.00 | 0.00 | 0.00 | 96 | 988.7 |
| 20260510084002 | 11 | 188 | 3.2 | 8.0 | 0.00 | 0.00 | 0.00 | 97 | 988.8 |
| 20260510083502 | 11 | 183 | 4.8 | 9.7 | 0.00 | 0.00 | 0.00 | 97 | 988.8 |
| 20260510083002 | 11 | 186 | 4.8 | 9.7 | 0.00 | 0.00 | 0.00 | 96 | 988.8 |
| 20260510082502 | 11 | 167 | 3.2 | 8.0 | 0.00 | 0.00 | 0.00 | 97 | 988.8 |
| 20260510082002 | 11 | 166 | 4.8 | 9.7 | 0.00 | 0.00 | 0.00 | 96 | 988.7 |
| 20260510081503 | 11 | 189 | 3.2 | 8.0 | 0.00 | 0.00 | 0.00 | 96 | 988.6 |
| 20260510081003 | 11 | 178 | 4.8 | 8.0 | 0.00 | 0.00 | 0.00 | 96 | 988.7 |
| 20260510080502 | 10 | 172 | 4.8 | 8.0 | 0.00 | 0.00 | 0.00 | 96 | 988.7 |
| 20260510080003 | 10 | 175 | 4.8 | 8.0 | 0.00 | 0.00 | 0.00 | 96 | 988.6 |
| 20260510075502 | 10 | 183 | 4.8 | 8.0 | 0.00 | 0.00 | 0.00 | 96 | 988.5 |
| 20260510075002 | 10 | 181 | 3.2 | 8.0 | 0.00 | 0.00 | 0.00 | 96 | 988.4 |
| 20260510074503 | 10 | 181 | 3.2 | 6.4 | 0.00 | 0.00 | 0.00 | 96 | 988.4 |
| 20260510074002 | 10 | 185 | 3.2 | 8.0 | 0.00 | 0.00 | 0.00 | 96 | 988.2 |
| 20260510073502 | 10 | 184 | 3.2 | 6.4 | 0.00 | 0.00 | 0.00 | 96 | 988.2 |
| 20260510073002 | 10 | 183 | 3.2 | 6.4 | 0.00 | 0.00 | 0.00 | 96 | 988.1 |
| 20260510072502 | 10 | 196 | 3.2 | 6.4 | 0.00 | 0.00 | 0.00 | 96 | 988.1 |
| 20260510072002 | 10 | 212 | 1.6 | 6.4 | 0.00 | 0.00 | 0.00 | 96 | 988.1 |
| 20260510071502 | 10 | 232 | 1.6 | 4.8 | 0.00 | 0.00 | 0.00 | 96 | 988.0 |
| 20260510071002 | 10 | 191 | 3.2 | 6.4 | 0.00 | 0.00 | 0.00 | 96 | 987.9 |
| 20260510070503 | 10 | 193 | 3.2 | 6.4 | 0.00 | 0.00 | 0.00 | 96 | 987.9 |
| 20260510070003 | 10 | 186 | 3.2 | 6.4 | 0.00 | 0.00 | 0.00 | 96 | 988.0 |
| 20260510065502 | 10 | 176 | 3.2 | 6.4 | 0.00 | 0.00 | 0.00 | 96 | 988.0 |
| 20260510065003 | 10 | 180 | 4.8 | 6.4 | 0.00 | 0.00 | 0.00 | 96 | 988.0 |
| 20260510064503 | 10 | 188 | 4.8 | 8.0 | 0.00 | 0.00 | 0.00 | 96 | 987.9 |
| 20260510064002 | 10 | 212 | 1.6 | 8.0 | 0.00 | 0.00 | 0.00 | 96 | 987.9 |
| 20260510063503 | 10 | 218 | 3.2 | 6.4 | 0.00 | 0.00 | 0.00 | 96 | 987.9 |
| 20260510063003 | 10 | 198 | 4.8 | 9.7 | 0.00 | 0.00 | 0.00 | 96 | 987.9 |
| 20260510062502 | 10 | 194 | 4.8 | 6.4 | 0.00 | 0.00 | 0.00 | 96 | 987.9 |
| 20260510062003 | 10 | 186 | 6.4 | 9.7 | 0.00 | 0.00 | 0.00 | 96 | 987.9 |
| 20260510061502 | 11 | 185 | 6.4 | 9.7 | 0.00 | 0.00 | 0.00 | 96 | 988.0 |
| 20260510061002 | 11 | 184 | 6.4 | 8.0 | 0.00 | 0.00 | 0.00 | 95 | 988.0 |
| 20260510060502 | 11 | 194 | 6.4 | 8.0 | 0.00 | 0.00 | 0.00 | 95 | 988.0 |
| 20260510060002 | 11 | 227 | 4.8 | 8.0 | 0.00 | 0.00 | 0.00 | 95 | 988.0 |
| 20260510055503 | 11 | 185 | 4.8 | 9.7 | 0.00 | 0.00 | 0.00 | 95 | 988.0 |
| 20260510055002 | 11 | 169 | 6.4 | 9.7 | 0.00 | 0.00 | 0.00 | 95 | 988.0 |
| 20260510054502 | 11 | 180 | 6.4 | 11.3 | 0.00 | 0.00 | 0.00 | 95 | 988.0 |
| 20260510054002 | 11 | 187 | 6.4 | 9.7 | 0.00 | 0.00 | 0.00 | 95 | 988.0 |
| 20260510053502 | 11 | 195 | 6.4 | 11.3 | 0.00 | 0.00 | 0.00 | 95 | 988.0 |
| 20260510053002 | 11 | 195 | 4.8 | 6.4 | 0.00 | 0.00 | 0.00 | 95 | 987.9 |
| 20260510052502 | 11 | 206 | 3.2 | 8.0 | 0.00 | 0.00 | 0.00 | 95 | 987.9 |
| 20260510052003 | 11 | 178 | 6.4 | 9.7 | 0.00 | 0.00 | 0.00 | 95 | 987.9 |
| 20260510051502 | 11 | 171 | 8.0 | 11.3 | 0.00 | 0.00 | 0.00 | 95 | 988.0 |
| 20260510051002 | 11 | 184 | 6.4 | 9.7 | 0.00 | 0.00 | 0.00 | 95 | 988.0 |
| 20260510050502 | 11 | 199 | 3.2 | 8.0 | 0.00 | 0.00 | 0.00 | 94 | 987.9 |
| 20260510050002 | 11 | 188 | 4.8 | 8.0 | 0.00 | 0.00 | 0.00 | 94 | 987.9 |
| 20260510045502 | 11 | 196 | 6.4 | 9.7 | 0.00 | 0.00 | 0.00 | 94 | 987.9 |
| 20260510045002 | 11 | 179 | 6.4 | 8.0 | 0.00 | 0.00 | 0.00 | 94 | 987.9 |
| 20260510044502 | 11 | 166 | 6.4 | 11.3 | 0.00 | 0.00 | 0.00 | 94 | 987.9 |
| 20260510044003 | 11 | 186 | 6.4 | 9.7 | 0.00 | 0.00 | 0.00 | 94 | 987.9 |
| 20260510043502 | 11 | 172 | 6.4 | 9.7 | 0.00 | 0.00 | 0.00 | 94 | 988.0 |
| 20260510043003 | 11 | 188 | 4.8 | 8.0 | 0.00 | 0.00 | 0.00 | 94 | 987.9 |
| 20260510042502 | 11 | 182 | 6.4 | 8.0 | 0.00 | 0.00 | 0.00 | 94 | 987.9 |
| 20260510042002 | 11 | 175 | 6.4 | 8.0 | 0.00 | 0.00 | 0.00 | 93 | 987.9 |
| 20260510041502 | 11 | 156 | 6.4 | 8.0 | 0.00 | 0.00 | 0.00 | 93 | 987.9 |
| 20260510041002 | 11 | 177 | 6.4 | 8.0 | 0.00 | 0.00 | 0.00 | 93 | 987.9 |
| 20260510040502 | 12 | 161 | 6.4 | 8.0 | 0.00 | 0.00 | 0.00 | 93 | 987.9 |
| 20260510040003 | 12 | 181 | 6.4 | 8.0 | 0.00 | 0.00 | 0.00 | 93 | 988.0 |
| 20260510035502 | 12 | 192 | 6.4 | 8.0 | 0.00 | 0.00 | 0.00 | 92 | 987.9 |
| 20260510035002 | 12 | 157 | 6.4 | 8.0 | 0.00 | 0.00 | 0.00 | 92 | 988.0 |
| 20260510034503 | 12 | 165 | 6.4 | 9.7 | 0.00 | 0.00 | 0.00 | 92 | 988.0 |
| 20260510034002 | 12 | 158 | 6.4 | 9.7 | 0.00 | 0.00 | 0.00 | 91 | 988.0 |
| 20260510033502 | 12 | 168 | 6.4 | 11.3 | 0.00 | 0.00 | 0.00 | 91 | 988.0 |
| 20260510033002 | 12 | 180 | 6.4 | 9.7 | 0.00 | 0.00 | 0.00 | 91 | 987.9 |
| 20260510032503 | 12 | 185 | 4.8 | 8.0 | 0.00 | 0.00 | 0.00 | 91 | 987.9 |
| 20260510032003 | 12 | 160 | 6.4 | 8.0 | 0.00 | 0.00 | 0.00 | 90 | 987.9 |
| 20260510031502 | 12 | 168 | 4.8 | 9.7 | 0.00 | 0.00 | 0.00 | 90 | 987.8 |
| 20260510031002 | 12 | 156 | 4.8 | 9.7 | 0.00 | 0.00 | 0.00 | 90 | 987.8 |
| 20260510030502 | 12 | 166 | 4.8 | 8.0 | 0.00 | 0.00 | 0.00 | 90 | 987.7 |
| 20260510030003 | 13 | 167 | 3.2 | 6.4 | 0.00 | 0.00 | 0.00 | 89 | 987.7 |
| 20260510025502 | 13 | 172 | 3.2 | 6.4 | 0.00 | 0.00 | 0.00 | 89 | 987.6 |
| 20260510025002 | 13 | 169 | 4.8 | 6.4 | 0.00 | 0.00 | 0.00 | 88 | 987.6 |
| 20260510024502 | 13 | 163 | 4.8 | 8.0 | 0.00 | 0.00 | 0.00 | 88 | 987.5 |
| 20260510024003 | 13 | 171 | 6.4 | 11.3 | 0.00 | 0.00 | 0.00 | 88 | 987.5 |
| 20260510023502 | 13 | 176 | 6.4 | 8.0 | 0.00 | 0.00 | 0.00 | 87 | 987.4 |
| 20260510023003 | 13 | 186 | 6.4 | 8.0 | 0.00 | 0.00 | 0.00 | 87 | 987.3 |
| 20260510022502 | 13 | 181 | 4.8 | 9.7 | 0.00 | 0.00 | 0.00 | 86 | 987.3 |
| 20260510022002 | 14 | 183 | 6.4 | 14.5 | 0.00 | 0.00 | 0.00 | 85 | 987.2 |
| 20260510021503 | 14 | 175 | 8.0 | 9.7 | 0.00 | 0.00 | 0.00 | 85 | 987.2 |
| 20260510021002 | 14 | 180 | 6.4 | 9.7 | 0.00 | 0.00 | 0.00 | 86 | 987.1 |
| 20260510020502 | 15 | 181 | 4.8 | 8.0 | 0.00 | 0.00 | 0.00 | 85 | 987.0 |
| 20260510020002 | 15 | 183 | 4.8 | 11.3 | 0.00 | 0.00 | 0.00 | 84 | 986.9 |
| 20260510015503 | 15 | 185 | 6.4 | 11.3 | 0.00 | 0.00 | 0.00 | 83 | 986.9 |
| 20260510015002 | 15 | 157 | 8.0 | 11.3 | 0.00 | 0.00 | 0.00 | 83 | 986.8 |
| 20260510014502 | 15 | 151 | 8.0 | 9.7 | 0.00 | 0.00 | 0.00 | 82 | 986.7 |
| 20260510014002 | 15 | 156 | 8.0 | 9.7 | 0.00 | 0.00 | 0.00 | 81 | 986.7 |
| 20260510013502 | 16 | 161 | 6.4 | 9.7 | 0.00 | 0.00 | 0.00 | 80 | 986.6 |
| 20260510013002 | 16 | 161 | 6.4 | 11.3 | 0.00 | 0.00 | 0.00 | 80 | 986.5 |
| 20260510012503 | 16 | 160 | 4.8 | 8.0 | 0.00 | 0.00 | 0.00 | 79 | 986.4 |
| 20260510012002 | 16 | 159 | 6.4 | 8.0 | 0.00 | 0.00 | 0.00 | 78 | 986.3 |
| 20260510011502 | 17 | 169 | 6.4 | 8.0 | 0.00 | 0.00 | 0.00 | 77 | 986.2 |
| 20260510011002 | 17 | 168 | 6.4 | 8.0 | 0.00 | 0.00 | 0.00 | 76 | 986.1 |
| 20260510010502 | 17 | 173 | 6.4 | 8.0 | 0.00 | 0.00 | 0.00 | 75 | 986.0 |
| 20260510010003 | 17 | 174 | 6.4 | 8.0 | 0.00 | 0.00 | 0.00 | 74 | 986.0 |
| 20260510005502 | 18 | 168 | 8.0 | 11.3 | 0.00 | 0.00 | 0.00 | 72 | 986.0 |
| 20260510005002 | 18 | 167 | 8.0 | 12.9 | 0.00 | 0.00 | 0.00 | 71 | 986.0 |
| 20260510004502 | 18 | 169 | 8.0 | 12.9 | 0.00 | 0.00 | 0.00 | 70 | 986.0 |
| 20260510004003 | 19 | 165 | 8.0 | 11.3 | 0.00 | 0.00 | 0.00 | 69 | 986.0 |
| 20260510003502 | 20 | 162 | 8.0 | 12.9 | 0.00 | 0.00 | 0.00 | 69 | 986.0 |
| 20260510003003 | 20 | 164 | 8.0 | 11.3 | 0.00 | 0.00 | 0.00 | 67 | 986.0 |
| 20260510002502 | 20 | 162 | 8.0 | 9.7 | 0.00 | 0.00 | 0.00 | 64 | 985.9 |
| 20260510002002 | 21 | 165 | 8.0 | 11.3 | 0.00 | 0.00 | 0.00 | 62 | 985.9 |
| 20260510001502 | 21 | 166 | 8.0 | 11.3 | 0.00 | 0.00 | 0.00 | 60 | 985.9 |
| 20260510001002 | 22 | 166 | 9.7 | 11.3 | 0.00 | 0.00 | 0.00 | 58 | 985.9 |
| 20260510000503 | 22 | 166 | 9.7 | 14.5 | 0.00 | 0.00 | 0.00 | 55 | 986.0 |
| 20260510000002 | 23 | 190 | 9.7 | 12.9 | 0.00 | 0.00 | 0.00 | 54 | 986.0 |
| 20260509235502 | 23 | 151 | 11.3 | 14.5 | 0.00 | 0.00 | 0.00 | 52 | 986.0 |
| 20260509235002 | 25 | 163 | 11.3 | 16.1 | 0.00 | 0.00 | 0.00 | 51 | 986.0 |
| 20260509234503 | 25 | 156 | 12.9 | 16.1 | 0.00 | 0.00 | 0.00 | 47 | 986.1 |
| 20260509234002 | 25 | 157 | 11.3 | 17.7 | 0.00 | 0.00 | 0.00 | 47 | 986.1 |
| 20260509233502 | 26 | 211 | 9.7 | 17.7 | 0.00 | 0.00 | 0.00 | 45 | 986.0 |
| 20260509233002 | 26 | 152 | 14.5 | 19.3 | 0.00 | 0.00 | 0.00 | 45 | 986.0 |
| 20260509232503 | 26 | 149 | 12.9 | 19.3 | 0.00 | 0.00 | 0.00 | 43 | 986.1 |
| 20260509232002 | 26 | 287 | 9.7 | 19.3 | 0.00 | 0.00 | 0.00 | 41 | 986.1 |
| 20260509231502 | 26 | 173 | 14.5 | 19.3 | 0.00 | 0.00 | 0.00 | 43 | 986.1 |
| 20260509231002 | 26 | 180 | 14.5 | 24.1 | 0.00 | 0.00 | 0.00 | 43 | 986.1 |
| 20260509230502 | 26 | 166 | 14.5 | 27.4 | 0.00 | 0.00 | 0.00 | 40 | 986.1 |
| 20260509230002 | 26 | 311 | 11.3 | 24.1 | 0.00 | 0.00 | 0.00 | 40 | 986.1 |
| 20260509225502 | 26 | 169 | 17.7 | 27.4 | 0.00 | 0.00 | 0.00 | 40 | 986.1 |